Wetbulb
54.72 55.16 56.19 58.77 58.17 57.29 57.35 57.14 59.49 61.03 62.02 61.55 60.34 58.82 57.02 57.50 57.85 53.14 54.28 59.22 60.06 62.85 61.27 56.92 55.90 55.70 55.63 54.70 54.81 52.86 45.76 44.36 48.03 50.05 51.63 55.81 53.85 56.59 56.96 56.44 56.36 56.30 56.23 60.46 63.62
55.47 54.92 55.34 55.82 58.98 57.86 57.26 57.79 60.06 60.25 59.65 59.15 59.03 58.19 58.75 57.88 54.37 53.26 60.08 60.73 62.33 62.63 56.22 53.65 52.93 53.29 51.19 52.63 52.17 48.00 43.95 46.14 51.76 51.92 52.60 54.77 54.55 55.11 53.44 54.77 54.18 55.22 57.80 62.43 62.81
54.60 54.61 54.67 55.52 58.10 58.50 57.32 57.88 60.20 60.58 60.08 59.57 59.24 59.06 58.71 56.61 51.73 54.02 61.87 61.87 61.85 61.47 57.21 54.64 53.41 52.29 50.55 50.75 50.43 48.62 43.72 47.98 51.68 53.00 53.93 54.70 53.57 55.72 52.14 51.77 54.85 54.17 56.15 60.46 61.18
54.87 54.16 53.62 54.84 55.58 58.05 57.91 58.01 59.70 59.98 60.14 59.68 59.14 58.92 59.24 54.08 45.37 56.72 62.16 62.08 61.42 60.58 55.61 53.00 51.27 49.50 48.49 47.09 50.22 45.13 46.96 50.04 51.94 52.37 53.00 52.58 53.81 51.55 51.82 51.39 56.24 57.38 58.25 59.94 60.08
53.46 54.61 53.21 53.16 53.50 55.82 58.55 57.77 59.02 59.58 60.07 59.74 58.66 59.00 54.38 48.97 47.79 58.84 60.83 59.83 59.70 56.90 52.17 51.33 49.35 49.35 46.36 47.88 48.46 46.43 47.13 50.71 51.40 51.20 50.99 52.26 50.61 49.81 50.67 53.23 56.01 57.74 58.92 58.85 59.05
52.98 52.58 54.30 53.23 53.90 55.25 57.08 58.46 58.91 59.71 60.47 59.73 58.35 56.46 50.39 45.10 54.96 58.76 58.78 59.56 57.88 54.46 51.28 50.72 49.51 49.39 46.46 46.90 46.85 48.32 49.00 49.41 49.80 50.08 50.19 49.21 48.73 49.22 51.38 53.63 53.91 54.54 54.99 57.89 58.48
52.64 52.12 52.75 54.49 54.19 54.38 57.70 58.82 58.95 59.38 59.84 59.34 57.46 53.06 49.33 47.40 54.10 56.34 57.72 57.86 58.05 54.58 50.68 53.06 52.51 48.67 47.74 45.91 49.51 48.91 45.21 45.80 47.40 48.69 47.64 48.24 44.49 46.09 49.65 52.38 51.23 52.83 53.37 56.35 58.67
53.88 52.68 52.03 53.10 54.05 54.40 55.82 58.47 59.04 59.14 59.42 58.83 56.35 52.57 46.44 54.45 53.35 54.32 55.64 56.95 58.50 56.67 54.33 54.98 53.47 51.24 49.55 48.99 46.67 44.21 43.56 39.54 45.34 47.86 47.02 45.47 38.49 46.44 49.71 49.55 48.95 51.01 52.57 54.05 56.49
54.03 53.23 52.63 52.85 54.71 54.21 55.64 56.45 58.27 58.81 59.30 58.06 52.31 48.90 43.35 53.85 49.91 53.56 53.99 53.32 55.43 55.22 56.48 54.94 52.81 48.28 48.02 43.11 39.49 40.81 36.40 39.10 40.54 46.87 45.97 43.34 39.74 44.13 47.11 46.65 46.93 48.78 50.43 52.59 55.53
54.06 53.16 53.35 53.02 53.61 54.40 55.22 55.88 57.63 57.79 54.35 53.03 51.10 43.90 46.83 44.01 49.37 52.20 53.42 55.68 53.31 53.22 51.36 50.22 47.53 43.39 41.87 39.99 33.23 37.08 36.51 38.84 39.19 42.58 44.01 41.57 41.28 42.54 45.00 45.72 45.78 47.18 48.66 49.85 54.86
53.77 53.31 53.23 53.25 53.13 55.11 54.25 53.98 49.62 46.67 48.09 43.12 43.29 44.27 45.48 49.38 51.72 50.03 52.66 53.00 52.79 49.27 42.33 46.01 40.34 36.54 40.52 41.81 41.89 37.98 38.31 39.16 40.11 41.53 39.93 40.77 41.12 43.67 45.74 44.02 43.95 44.80 47.03 48.40 52.29
53.39 53.66 53.01 53.04 52.77 54.88 53.57 45.28 47.59 49.02 40.51 46.61 47.28 46.19 49.26 49.73 42.88 47.15 53.47 47.52 46.38 39.89 43.83 41.27 37.14 43.32 45.12 43.60 41.59 38.50 37.33 37.64 39.10 42.69 39.18 37.56 38.05 41.37 43.01 43.04 44.54 44.90 44.87 46.99 48.91
53.10 53.68 53.39 53.53 53.58 53.12 49.98 48.27 52.74 51.82 40.40 41.53 44.94 44.69 46.80 48.21 42.55 43.54 50.64 46.78 43.43 40.45 40.31 38.53 40.09 44.29 42.70 40.30 39.39 38.69 36.33 35.87 35.69 39.30 40.01 36.41 34.43 37.70 41.15 44.09 43.74 44.69 45.01 45.28 47.33
52.68 53.49 53.43 53.30 50.44 51.37 47.66 52.49 53.09 51.37 34.78 37.20 41.00 44.25 47.30 48.03 42.22 48.46 51.54 46.12 43.16 38.80 40.00 39.50 41.39 41.20 39.86 38.92 39.42 34.77 39.02 38.33 37.43 32.79 28.05 35.45 25.73 34.67 38.69 39.54 41.41 42.89 44.01 43.33 44.78
52.59 53.24 53.38 53.85 50.41 48.04 50.71 52.73 51.41 47.20 26.25 38.91 41.23 50.56 47.85 43.14 43.44 44.29 51.43 47.37 40.19 39.56 40.10 35.51 37.21 38.10 36.97 38.10 40.14 37.23 40.66 38.17 36.92 33.03 31.02 32.08 27.38 31.52 37.75 37.19 38.98 40.63 42.86 42.38 44.05
52.50 52.90 53.15 51.08 51.24 51.76 51.96 50.13 46.99 31.98 25.55 34.83 41.32 41.19 40.84 42.70 42.33 46.33 45.41 47.76 46.99 41.14 40.55 38.06 42.27 40.45 39.09 40.21 41.20 41.88 39.19 38.44 36.49 33.56 23.63 31.03 29.44 28.92 32.55 35.83 38.66 40.97 42.23 42.98 42.60
52.22 52.43 51.43 52.18 46.73 51.52 50.07 45.22 30.88 26.79 34.69 33.29 36.74 40.65 39.93 38.64 39.98 42.00 39.72 38.74 36.11 30.40 31.16 36.01 36.88 39.53 41.68 37.41 39.55 38.80 33.88 24.77 20.89 19.46 21.30 30.85 28.41 31.24 34.18 36.37 39.45 39.95 41.01 41.65 41.55
51.96 51.91 50.58 51.51 51.68 49.38 45.28 35.74 27.07 31.37 32.31 36.85 39.33 39.71 36.61 38.79 38.55 39.40 37.35 34.51 38.70 36.57 32.29 28.22 24.18 36.45 40.27 37.62 35.59 36.11 33.66 27.69 20.40 22.63 22.87 27.95 23.39 31.00 38.12 39.19 40.24 40.65 40.89 41.71 41.55
51.53 49.60 48.87 50.46 51.46 48.48 38.69 29.69 30.52 32.99 36.53 36.31 38.32 35.02 35.28 37.82 37.76 37.06 36.50 35.18 37.19 37.68 30.75 28.21 29.25 38.43 40.06 40.09 40.09 35.62 30.43 35.60 26.85 22.43 22.34 26.20 30.76 34.86 37.34 38.07 38.19 38.99 39.95 39.59 40.63
46.25 45.36 45.41 51.15 50.86 45.92 32.52 30.38 31.93 36.87 38.09 38.23 32.80 35.49 32.14 35.31 34.82 35.42 35.06 38.69 37.14 39.57 38.97 35.14 27.91 36.94 38.00 39.77 39.82 36.31 37.54 25.17 26.04 15.25 15.75 22.75 25.13 27.99 33.84 36.19 38.40 38.09 38.86 39.86 40.30
43.54 38.26 46.06 50.42 47.93 39.37 30.82 31.28 33.25 38.00 39.24 34.85 32.26 32.40 35.87 35.32 36.31 34.74 34.99 38.12 40.06 38.83 37.84 36.77 33.73 33.78 36.89 34.90 33.88 34.72 31.36 33.14 32.52 27.85 22.39 20.57 24.38 33.42 35.81 37.66 37.88 39.11 41.24 40.51 40.16
42.31 32.19 46.09 48.65 34.07 32.05 31.43 32.91 38.17 37.80 39.24 35.93 35.90 34.40 34.15 37.57 35.73 35.08 34.86 37.29 41.87 40.19 35.09 37.48 34.76 29.68 31.60 37.12 38.35 37.47 34.13 33.98 25.22 25.09 25.12 25.54 24.31 36.61 37.35 37.25 39.04 40.48 41.61 40.51 40.70
33.47 37.36 45.93 45.10 28.44 30.09 32.54 34.84 37.45 36.40 36.35 36.70 33.99 36.40 36.21 34.29 34.05 36.38 37.18 41.58 41.79 39.42 36.39 38.00 31.58 26.03 29.43 33.16 36.43 34.90 35.87 36.12 34.01 30.84 26.98 23.28 25.87 37.71 37.16 36.87 39.18 38.96 40.30 40.81 40.94
35.87 30.96 36.05 39.56 37.28 32.02 30.24 31.99 33.04 38.93 36.82 37.85 36.38 37.34 36.03 33.74 37.30 35.75 36.80 39.31 41.93 41.04 42.00 40.98 34.67 29.75 24.95 28.41 33.78 31.56 34.52 35.83 34.53 24.52 27.32 27.95 27.84 32.22 35.88 37.29 39.21 39.38 41.16 40.41 40.96
35.34 31.83 33.29 27.94 29.94 32.65 33.52 32.85 31.57 32.46 37.99 38.04 35.44 36.41 34.93 32.17 32.10 34.98 37.69 37.31 40.57 41.99 40.17 38.77 27.13 30.25 31.44 32.92 33.70 33.00 33.66 34.92 32.93 33.70 27.99 30.67 31.45 35.32 37.50 38.65 40.32 40.46 41.84 41.03 41.01
32.64 31.09 34.58 31.27 33.37 31.29 32.55 30.72 30.67 32.54 34.44 32.66 32.89 35.60 36.20 34.25 35.84 33.49 36.63 36.58 36.36 39.45 37.76 38.53 30.47 32.02 25.44 31.35 31.57 30.00 33.03 34.78 35.35 35.17 34.75 34.38 33.11 38.68 40.44 39.69 40.77 41.35 42.22 41.06 40.91
39.32 40.06 38.42 33.25 31.72 29.62 28.75 31.27 32.47 35.21 36.19 37.25 35.93 35.50 34.83 37.02 40.15 40.52 40.70 40.82 39.93 37.86 36.51 35.13 30.50 25.44 21.79 29.04 29.01 23.47 28.57 31.97 33.75 37.01 36.31 32.13 37.20 40.85 39.55 40.21 39.98 40.91 42.01 41.65 41.31
MSLP
1012.33 1012.07 1011.69 1010.26 1010.08 1011.84 1012.53 1012.20 1011.68 1012.18 1011.75 1011.98 1012.91 1013.61 1013.98 1014.31 1014.31 1014.13 1013.44 1013.19 1012.89 1012.59 1012.26 1011.56 1010.73 1010.31 1010.11 1010.31 1010.35 1010.32 1010.45 1009.86 1009.27 1009.16 1009.44 1009.65 1009.94 1010.18 1010.88 1011.47 1011.80 1012.49 1012.84 1013.55 1014.80
1011.96 1011.89 1011.51 1010.59 1010.98 1011.26 1011.71 1011.94 1012.33 1012.21 1012.32 1012.80 1013.25 1013.52 1013.55 1013.71 1013.45 1013.42 1012.61 1012.79 1012.53 1012.61 1012.05 1011.56 1010.90 1010.60 1010.23 1010.39 1010.45 1010.40 1010.58 1010.51 1010.39 1010.18 1010.07 1010.18 1010.55 1010.87 1011.42 1011.94 1012.54 1013.18 1013.55 1014.15 1015.05
1012.00 1011.54 1011.38 1011.28 1010.90 1010.64 1011.24 1011.81 1011.71 1012.65 1012.55 1012.59 1013.37 1013.28 1013.63 1013.17 1012.75 1011.97 1012.13 1011.90 1011.83 1012.47 1012.24 1012.00 1011.50 1011.01 1010.43 1010.53 1010.73 1010.73 1011.10 1011.00 1011.34 1011.22 1010.92 1010.86 1010.97 1011.20 1011.61 1012.23 1012.37 1013.20 1013.88 1014.52 1015.17
1011.22 1011.00 1011.39 1011.07 1011.05 1011.04 1011.42 1011.62 1011.58 1011.80 1012.07 1013.01 1013.56 1013.56 1013.87 1013.20 1013.10 1012.27 1012.28 1012.57 1012.70 1012.62 1012.58 1011.87 1011.47 1011.15 1010.71 1010.94 1011.04 1011.31 1011.64 1011.68 1012.10 1012.22 1011.83 1011.79 1011.60 1011.86 1012.00 1012.69 1012.30 1012.37 1013.31 1014.48 1015.17
1011.16 1011.32 1011.30 1011.24 1011.22 1011.30 1010.63 1010.95 1011.13 1011.35 1012.59 1013.39 1013.89 1013.98 1014.33 1014.20 1012.94 1012.47 1012.62 1012.73 1012.39 1012.45 1012.06 1011.60 1011.29 1011.10 1011.11 1011.07 1011.51 1011.53 1011.99 1012.42 1012.86 1012.92 1012.88 1012.73 1012.57 1012.66 1012.54 1012.69 1012.59 1012.93 1013.44 1014.34 1015.00
1011.60 1011.48 1011.40 1011.29 1010.92 1011.27 1010.67 1010.57 1011.20 1011.06 1011.94 1012.87 1013.38 1014.22 1015.52 1014.83 1013.03 1012.46 1012.53 1012.53 1011.85 1011.83 1011.93 1011.79 1011.36 1011.48 1011.58 1011.67 1011.92 1012.09 1012.45 1012.84 1013.21 1013.38 1013.64 1013.55 1013.28 1013.22 1012.76 1012.61 1013.01 1013.44 1013.76 1014.17 1014.62
1011.36 1011.20 1010.91 1010.55 1011.01 1011.50 1010.77 1010.72 1010.93 1011.14 1011.83 1012.84 1012.98 1014.08 1014.88 1013.80 1013.08 1012.73 1012.75 1012.23 1012.01 1011.73 1011.79 1011.77 1011.69 1011.87 1012.02 1012.47 1012.65 1012.72 1013.16 1013.39 1013.57 1013.75 1014.00 1014.16 1013.98 1013.66 1013.12 1012.97 1013.34 1013.75 1013.89 1013.96 1014.22
1011.17 1010.80 1010.93 1011.22 1010.79 1011.13 1010.78 1010.51 1010.45 1011.17 1011.54 1012.28 1012.87 1013.77 1014.16 1012.84 1013.52 1013.30 1012.90 1012.52 1012.27 1012.03 1011.88 1012.05 1011.81 1012.10 1012.38 1013.05 1013.19 1013.32 1013.51 1013.80 1013.85 1014.28 1014.69 1014.67 1014.13 1013.71 1013.36 1013.54 1013.80 1013.84 1013.81 1013.84 1014.09
1010.80 1011.06 1011.13 1010.89 1010.98 1010.54 1010.49 1010.46 1010.57 1011.07 1011.64 1012.60 1013.36 1013.80 1013.47 1013.51 1013.91 1013.27 1012.91 1012.68 1012.40 1012.22 1012.27 1012.20 1011.94 1012.49 1013.00 1013.06 1013.39 1013.65 1013.69 1013.84 1014.59 1014.64 1014.97 1015.14 1014.62 1014.50 1014.15 1014.12 1014.20 1013.92 1013.76 1013.73 1014.06
1011.03 1011.15 1011.13 1011.16 1010.96 1010.75 1010.63 1010.65 1011.02 1011.55 1012.40 1013.66 1013.37 1013.78 1013.26 1012.81 1012.83 1012.64 1012.60 1012.65 1012.40 1012.56 1012.67 1012.59 1012.43 1012.79 1012.84 1012.90 1013.02 1013.38 1013.66 1013.77 1014.33 1015.06 1015.22 1015.51 1014.99 1014.61 1014.44 1014.55 1014.61 1014.32 1013.94 1013.94 1014.19
1011.01 1010.88 1010.87 1010.86 1010.74 1010.81 1010.83 1010.84 1011.62 1012.47 1012.76 1012.60 1012.54 1012.23 1011.69 1012.06 1012.68 1012.61 1012.84 1012.95 1012.56 1012.66 1012.70 1012.77 1012.81 1012.51 1012.63 1012.75 1012.62 1013.27 1013.57 1013.85 1014.51 1015.39 1015.53 1015.55 1015.12 1014.65 1014.37 1014.48 1014.52 1014.57 1014.27 1014.17 1014.38
1010.72 1010.71 1010.70 1010.92 1010.97 1010.74 1010.96 1011.31 1011.58 1011.86 1012.28 1012.37 1012.67 1012.83 1012.35 1012.53 1012.94 1012.57 1012.90 1012.93 1012.92 1012.83 1012.79 1013.61 1012.90 1012.46 1012.39 1012.60 1013.06 1013.55 1013.82 1014.26 1015.32 1015.76 1016.14 1015.80 1015.30 1014.63 1014.19 1013.94 1014.00 1014.22 1014.33 1014.45 1014.82
1010.46 1010.54 1010.59 1010.78 1010.67 1010.94 1011.27 1012.10 1011.96 1011.74 1012.66 1012.90 1012.69 1012.50 1012.33 1012.78 1012.61 1012.57 1012.93 1012.44 1012.69 1012.81 1013.08 1013.15 1012.80 1012.55 1012.60 1012.86 1013.46 1013.93 1014.20 1014.70 1015.51 1016.25 1016.40 1016.27 1015.36 1014.12 1013.04 1013.23 1013.46 1013.65 1014.04 1014.44 1014.99
1010.37 1010.33 1010.53 1010.73 1011.09 1010.68 1011.51 1012.14 1012.16 1012.09 1012.53 1012.81 1012.51 1012.04 1012.59 1012.85 1012.86 1012.60 1012.76 1012.51 1013.00 1012.83 1013.46 1013.87 1013.57 1013.24 1013.54 1013.74 1014.04 1014.43 1014.57 1015.17 1016.22 1016.87 1017.32 1016.88 1015.89 1013.93 1013.42 1013.51 1013.68 1013.92 1014.22 1014.66 1015.24
1010.07 1010.34 1010.61 1010.56 1010.40 1010.84 1011.48 1011.83 1012.22 1012.17 1012.32 1012.14 1012.02 1011.38 1011.99 1012.38 1012.62 1013.03 1012.92 1013.01 1012.80 1012.66 1013.73 1014.65 1014.43 1014.24 1014.40 1014.22 1014.44 1015.01 1015.09 1016.18 1017.04 1017.77 1018.13 1017.72 1017.34 1014.53 1013.70 1013.93 1014.04 1014.43 1015.01 1015.47 1016.08
1010.04 1010.34 1010.58 1010.80 1011.01 1011.19 1011.41 1011.65 1012.72 1013.27 1012.18 1011.81 1011.44 1011.38 1012.11 1012.78 1012.65 1012.73 1013.15 1013.15 1012.79 1013.39 1014.39 1015.31 1015.11 1014.99 1014.99 1015.00 1015.08 1015.65 1016.22 1017.42 1018.22 1018.83 1019.19 1017.88 1017.45 1015.22 1014.40 1013.90 1014.20 1014.95 1015.69 1016.30 1016.77
1010.14 1010.52 1010.68 1010.67 1011.60 1011.78 1011.55 1011.95 1013.42 1012.69 1012.46 1012.12 1011.53 1011.34 1012.09 1012.22 1012.47 1012.60 1012.96 1013.31 1013.24 1014.20 1015.19 1016.02 1016.14 1016.14 1015.72 1016.02 1016.29 1016.35 1016.81 1018.80 1019.87 1020.14 1019.29 1018.16 1017.69 1015.42 1014.76 1014.60 1014.83 1015.55 1016.26 1016.93 1017.54
1010.13 1010.54 1010.75 1011.05 1011.70 1011.62 1012.32 1012.94 1013.03 1012.47 1012.40 1012.08 1011.67 1011.90 1012.08 1012.29 1012.57 1013.00 1013.33 1013.57 1013.61 1013.57 1014.61 1015.47 1017.00 1016.54 1016.25 1016.06 1016.24 1016.76 1016.85 1017.75 1019.06 1020.02 1019.55 1018.99 1017.39 1015.31 1014.99 1015.23 1015.70 1016.13 1016.73 1017.30 1017.81
1010.49 1011.04 1011.34 1011.66 1011.74 1011.98 1012.88 1013.31 1012.85 1012.52 1012.22 1012.03 1012.17 1012.33 1012.41 1012.26 1012.48 1013.08 1013.04 1013.26 1013.39 1013.25 1013.75 1014.57 1016.17 1016.47 1016.44 1016.32 1016.42 1016.95 1017.15 1017.71 1018.70 1019.91 1019.61 1018.17 1016.58 1015.28 1015.26 1015.71 1016.22 1016.78 1017.15 1017.60 1018.04
1010.80 1011.23 1011.92 1012.00 1011.97 1012.26 1013.63 1013.71 1013.48 1013.14 1012.64 1012.47 1012.45 1012.48 1012.17 1012.06 1012.26 1012.42 1012.84 1012.67 1012.88 1012.96 1013.00 1013.55 1016.08 1016.79 1017.03 1016.81 1016.61 1016.47 1017.05 1018.00 1018.48 1019.79 1019.51 1017.51 1016.21 1015.22 1015.44 1015.77 1016.31 1016.91 1017.30 1017.51 1018.02
1011.16 1012.21 1012.77 1012.39 1012.47 1012.95 1013.67 1014.16 1013.85 1013.47 1012.92 1013.25 1013.11 1013.04 1012.46 1011.96 1011.98 1012.20 1012.47 1011.91 1012.24 1012.76 1013.06 1013.25 1014.89 1017.12 1017.46 1016.80 1016.39 1016.82 1016.85 1017.14 1017.76 1018.59 1018.43 1017.70 1016.03 1014.37 1014.45 1015.07 1015.73 1016.37 1016.92 1017.39 1018.04
1011.90 1013.16 1013.17 1013.12 1013.69 1013.78 1013.96 1013.84 1013.47 1013.34 1013.18 1013.55 1013.71 1013.59 1013.21 1012.42 1012.10 1012.16 1011.71 1011.54 1011.62 1012.42 1013.22 1013.28 1014.87 1016.60 1016.90 1016.74 1016.58 1016.25 1016.50 1017.03 1017.53 1018.15 1018.12 1017.47 1015.87 1014.54 1014.44 1014.84 1015.19 1015.93 1016.57 1017.25 1017.73
1013.07 1013.65 1013.62 1013.58 1014.07 1014.54 1014.56 1013.99 1013.38 1013.54 1013.59 1013.42 1013.69 1013.71 1013.51 1013.21 1012.50 1011.85 1011.60 1011.62 1011.66 1012.36 1012.89 1013.48 1014.63 1016.27 1017.10 1017.23 1016.83 1016.62 1016.64 1016.80 1016.87 1017.13 1017.18 1017.01 1015.67 1014.75 1014.54 1014.81 1015.14 1015.66 1016.31 1016.91 1017.43
1013.34 1014.23 1014.45 1014.22 1014.25 1014.23 1014.66 1014.47 1013.93 1013.54 1013.69 1013.49 1013.52 1013.51 1013.48 1013.50 1012.88 1012.27 1011.85 1011.99 1011.91 1012.42 1013.12 1013.39 1013.94 1014.56 1015.36 1015.28 1015.67 1016.46 1016.44 1016.50 1016.53 1016.72 1016.10 1015.30 1014.87 1014.69 1014.45 1014.54 1014.78 1015.29 1015.81 1016.53 1017.11
1013.66 1014.27 1014.29 1014.76 1014.85 1014.46 1014.18 1013.88 1013.71 1013.72 1013.61 1013.37 1013.29 1012.99 1012.88 1013.53 1013.34 1012.46 1012.28 1012.49 1012.45 1012.89 1013.43 1013.65 1014.18 1014.77 1015.30 1015.49 1015.38 1015.37 1015.53 1015.84 1015.82 1015.66 1015.08 1014.49 1013.98 1013.56 1013.44 1013.61 1014.02 1014.69 1015.37 1016.10 1016.63
1013.96 1014.24 1014.48 1014.51 1014.34 1014.56 1013.84 1013.03 1012.59 1012.76 1013.15 1013.33 1013.27 1013.10 1013.13 1012.95 1013.03 1012.84 1012.43 1012.29 1012.65 1013.51 1013.66 1013.91 1014.80 1015.27 1016.34 1016.22 1015.86 1015.68 1015.14 1014.87 1014.64 1014.63 1014.11 1013.92 1013.10 1012.53 1012.44 1012.75 1013.29 1014.07 1014.80 1015.42 1015.83
1013.77 1013.52 1013.44 1014.12 1014.05 1014.13 1013.24 1012.95 1012.78 1012.89 1013.03 1013.16 1013.03 1012.77 1013.03 1012.80 1012.75 1013.13 1012.85 1012.51 1012.54 1012.71 1013.40 1014.32 1015.44 1016.50 1017.49 1017.14 1016.68 1015.88 1014.80 1014.57 1014.10 1013.46 1013.18 1012.68 1012.05 1012.23 1012.28 1012.34 1012.86 1013.44 1013.78 1014.55 1015.11
Wind_Speed
7 11 18 9 10 12 9 0 7 4 6 12 9 5 1 4 7 1 4 1 4 9 9 9 8 4 4 2 1 1 2 3 4 5 7 9 5 5 3 8 5 5 8 16 15
10 9 14 19 14 13 11 7 7 3 14 12 12 10 9 9 5 12 8 4 3 8 5 7 3 7 4 2 0 0 1 5 7 7 6 7 10 6 3 9 7 8 6 15 13
11 7 11 11 15 15 12 12 11 14 14 13 7 10 13 9 1 3 9 5 2 6 4 5 6 5 1 1 1 2 2 2 8 7 9 6 4 6 3 6 9 11 10 14 10
12 6 4 7 14 7 19 16 14 12 11 11 9 8 12 8 6 4 5 5 5 3 6 4 4 2 3 4 2 3 4 6 4 5 5 5 1 2 2 3 6 10 13 12 10
9 9 3 9 5 15 14 17 15 16 17 16 12 11 7 5 4 4 1 4 6 5 4 5 5 2 4 6 3 1 5 6 5 3 8 4 3 1 4 6 8 9 11 12 10
6 5 5 5 7 12 14 19 18 19 22 18 15 15 5 8 8 1 4 3 5 5 3 3 2 1 4 4 0 4 5 7 2 6 4 2 3 3 5 5 8 5 4 10 10
6 8 9 10 5 13 12 17 17 16 20 23 21 8 4 10 6 4 5 3 3 2 4 2 1 3 5 5 1 4 5 2 3 4 4 2 3 5 4 6 2 8 7 7 10
7 7 7 10 5 12 10 12 16 15 18 23 19 7 5 4 4 7 8 3 2 1 2 4 3 5 3 6 4 4 2 4 4 6 2 0 3 3 2 7 5 8 9 8 8
9 4 8 5 7 9 7 11 11 16 17 18 8 4 5 5 6 9 8 6 5 4 3 3 3 4 3 5 4 3 3 6 2 3 4 4 4 1 4 2 5 7 7 6 7
10 6 6 4 7 5 8 9 11 15 13 5 4 3 7 10 9 6 5 5 4 7 4 3 3 4 4 4 5 6 4 3 5 5 2 5 10 2 4 4 6 7 6 5 7
10 8 7 5 7 6 2 4 7 6 4 6 9 2 8 9 6 8 5 7 4 6 5 4 4 7 10 10 5 3 4 5 8 2 1 8 9 9 8 6 8 7 7 6 6
8 8 6 6 6 6 4 3 3 2 6 2 3 5 8 4 4 9 7 9 8 7 6 4 7 9 8 9 5 3 4 2 4 5 1 6 8 9 8 9 9 9 8 7 5
6 7 5 6 2 4 6 6 4 4 5 3 4 10 5 3 4 13 6 4 7 9 10 8 1 5 6 7 10 6 7 4 5 2 5 5 8 12 9 14 8 9 7 6 8
6 8 4 5 5 4 6 9 5 2 4 8 5 7 7 5 2 12 6 3 5 11 8 6 3 9 8 8 7 7 4 8 8 4 2 1 6 2 5 5 4 4 3 3 5
6 8 6 7 3 2 10 10 3 4 6 14 8 9 11 11 12 7 2 2 8 7 7 4 5 10 8 10 8 3 9 7 5 3 5 5 2 7 6 5 7 6 6 3 7
8 9 6 0 2 4 12 11 4 2 4 4 8 14 15 12 5 9 5 2 3 5 7 4 5 2 0 3 7 8 12 10 4 2 1 9 8 6 5 4 6 8 7 5 4
11 10 5 3 4 6 3 5 2 2 2 4 5 14 16 11 10 13 14 8 7 7 6 6 3 3 0 9 4 5 6 3 3 1 6 4 6 8 4 1 6 7 6 7 5
13 9 2 3 8 7 3 3 4 2 3 1 6 16 7 15 7 15 16 11 10 5 9 6 2 7 4 3 8 9 4 6 8 6 5 3 7 7 6 7 6 5 4 7 6
14 3 2 6 7 4 5 2 1 2 4 4 10 12 6 11 8 13 14 12 11 11 5 6 4 3 7 1 10 5 4 1 6 2 3 6 6 3 6 6 4 5 6 6 6
3 3 3 3 3 2 5 5 3 5 2 1 2 3 6 15 9 12 15 14 10 9 5 6 7 5 1 2 2 2 7 4 3 4 4 5 4 6 5 7 7 6 7 7 7
4 4 3 3 3 4 2 5 1 3 4 2 3 2 3 11 7 11 14 11 11 11 1 3 6 5 5 6 9 4 4 4 5 3 5 2 6 4 8 8 9 8 7 8 7
3 3 3 2 3 2 1 2 4 3 2 3 3 2 3 8 10 12 12 4 13 13 6 1 6 5 7 3 4 6 5 5 4 5 3 4 7 0 7 6 4 7 6 8 8
3 2 2 2 2 3 2 2 1 3 1 2 4 1 2 4 6 9 9 8 14 14 9 6 3 6 5 3 2 3 5 3 3 3 5 6 5 3 4 4 5 5 8 7 8
4 4 2 2 2 3 5 3 3 3 2 2 3 4 3 4 5 8 10 4 10 14 1 5 5 6 8 6 10 7 10 10 8 3 5 8 2 5 7 7 6 6 8 8 8
3 2 1 4 3 4 3 7 8 5 2 2 2 6 6 4 2 5 8 3 3 7 6 3 3 1 5 5 5 8 14 18 17 13 8 7 10 8 9 10 9 9 7 9 9
3 3 1 1 7 5 4 5 6 3 7 4 0 5 4 4 4 4 6 5 5 9 8 2 1 3 4 4 5 4 10 16 20 17 19 13 12 4 1 4 8 9 9 9 9
1 2 1 6 6 7 5 3 6 7 3 2 8 3 5 2 6 3 7 2 3 11 11 7 5 3 3 1 3 9 9 10 9 17 13 17 14 6 9 8 8 9 10 10 9
Wind_Direction
286 329 332 338 175 199 206 171 349 0 38 98 114 152 169 190 253 109 250 260 334 328 321 278 263 293 239 135 288 313 299 260 284 133 115 137 102 71 32 115 96 61 33 126 132
278 308 344 354 209 191 166 157 209 144 89 34 50 35 16 344 231 202 151 219 338 326 334 348 359 317 142 146 306 234 231 17 351 21 112 157 128 120 135 124 112 95 79 118 138
261 292 350 351 357 179 185 174 192 165 130 105 23 24 355 324 241 222 146 122 347 306 274 299 291 281 171 240 133 100 7 101 34 22 349 163 104 129 206 158 165 153 149 141 154
286 281 302 9 349 326 175 187 193 179 133 137 137 33 347 337 184 77 115 142 193 249 247 239 235 234 185 169 109 148 63 25 48 9 345 97 14 82 272 78 25 133 150 150 164
342 255 288 313 327 313 196 188 197 168 163 137 104 75 20 342 316 104 75 199 206 190 235 223 220 227 227 126 161 232 111 80 88 70 37 17 13 76 236 116 71 57 144 157 169
294 333 283 218 294 290 307 183 197 176 160 158 141 114 104 271 327 162 253 211 217 195 177 255 294 25 69 86 20 44 119 109 120 91 67 350 114 44 225 252 120 113 184 167 178
310 316 318 343 238 273 311 199 190 188 169 148 133 103 162 219 286 301 267 297 328 249 160 58 45 228 133 101 349 134 113 133 156 129 92 322 264 204 250 58 12 167 211 211 182
272 303 284 305 204 279 331 213 191 187 168 148 142 114 227 123 311 276 232 195 230 249 86 140 207 86 54 126 105 142 321 160 127 122 54 22 277 124 114 134 219 236 197 203 209
277 263 261 281 243 277 348 318 192 180 161 133 123 201 169 127 202 225 239 190 152 124 103 149 218 109 144 159 107 192 185 196 168 232 110 200 269 105 61 56 263 259 226 204 176
297 241 245 245 307 241 323 316 164 139 104 136 179 179 169 191 177 157 266 186 151 134 116 162 146 160 181 179 174 169 207 101 152 181 210 198 257 202 172 182 233 264 275 233 168
295 250 249 276 314 196 297 158 162 127 174 160 173 20 131 90 107 164 190 202 145 189 155 195 169 194 183 195 239 36 266 204 92 100 131 225 255 243 209 199 226 238 249 244 177
281 235 239 256 286 185 96 42 27 26 126 76 28 195 102 117 140 166 200 172 173 179 145 102 223 206 197 193 215 221 257 180 85 99 162 283 274 263 243 232 213 213 228 225 181
272 224 225 253 261 156 116 122 29 350 108 227 237 182 130 183 165 177 203 191 188 190 184 171 44 176 145 128 151 208 208 211 98 160 222 302 265 236 230 225 221 215 208 223 200
260 204 202 229 144 164 139 134 71 304 115 156 214 175 147 180 194 158 234 171 199 195 167 257 143 136 139 162 177 180 172 83 109 102 219 308 280 306 145 171 219 247 204 241 272
239 183 194 214 96 196 131 120 120 49 194 150 158 141 158 172 136 202 298 155 198 167 135 192 161 160 174 184 177 121 114 130 128 173 57 202 273 253 123 206 190 175 78 36 55
196 167 160 278 59 145 118 102 66 153 190 159 144 166 154 180 187 128 137 281 109 99 43 71 316 87 306 72 116 133 100 81 83 98 302 202 171 264 189 202 106 124 126 77 56
164 155 171 140 136 102 89 68 112 250 360 141 165 160 160 167 144 164 162 165 151 131 157 112 78 37 12 78 116 126 120 73 14 20 220 333 192 252 174 113 101 106 98 120 130
142 140 179 86 122 96 46 76 216 147 167 225 160 152 170 154 139 176 166 177 223 199 136 147 207 175 205 177 172 181 158 160 187 186 188 26 229 250 104 91 85 91 86 124 161
135 113 77 145 140 106 66 199 26 59 119 175 129 160 139 177 132 171 184 191 200 203 144 134 82 41 144 26 142 194 204 6 105 8 66 200 249 247 141 136 155 176 172 173 154
108 97 53 145 144 72 74 334 1 331 23 338 116 188 165 174 145 173 178 197 182 214 46 119 112 164 28 281 184 164 144 74 327 136 228 252 222 227 190 187 174 189 202 168 162
65 72 31 107 55 38 130 188 172 223 327 45 101 110 174 172 154 178 183 166 168 195 184 125 113 146 136 221 170 188 191 229 131 132 174 173 254 331 143 155 182 194 188 166 165
86 85 14 349 68 60 151 198 171 132 86 111 91 119 38 187 170 179 187 166 167 156 179 140 105 157 188 41 4 245 189 202 141 207 231 134 268 119 112 131 139 161 167 161 171
84 88 35 353 152 179 331 271 215 130 169 188 128 259 136 345 186 179 178 205 147 165 170 187 154 114 166 331 116 222 232 252 262 95 206 146 240 113 122 178 189 192 169 171 167
100 112 343 345 322 173 175 182 154 138 174 224 119 139 184 70 313 196 148 124 157 177 218 143 178 155 176 192 143 186 210 216 229 152 165 211 200 193 211 222 200 205 181 177 176
28 123 131 180 240 299 192 168 160 171 195 212 192 221 144 131 278 177 146 89 70 157 192 200 176 169 64 96 177 171 191 207 220 222 213 172 217 224 198 203 192 189 183 178 183
121 140 217 193 143 186 213 223 204 188 174 204 119 191 148 137 159 229 145 146 159 188 193 214 268 89 16 19 36 243 218 213 220 227 243 258 260 257 297 203 166 172 177 197 193
230 260 223 171 174 183 218 197 219 200 187 119 189 147 178 149 126 138 322 342 187 169 185 167 129 100 196 59 29 279 209 226 234 226 221 233 234 198 232 243 201 187 185 197 205